IV3CVE-H1 Weather Reports


Display with metric or nautical units.
time (UTC)temp
F
wind
direction
speed
MPH
gust
MPH
rain 1hr
in
rain 24hr
in
rain mn
in
humidity
%
barometer
mb
20260906073016 81 51 6.0 18.0 0.00 0.00 0.00 57 1020.2
20260906072017 80 57 12.0 21.0 0.00 0.00 0.00 58 1020.2
20260906071015 79 44 9.0 14.0 0.00 0.00 0.00 62 1020.2
20260906070015 79 47 9.0 15.0 0.00 0.00 0.00 62 1020.1
20260906065017 78 46 10.0 18.0 0.00 0.00 0.00 62 1020.0
20260906064017 78 41 9.0 16.0 0.00 0.00 0.00 64 1020.0
20260906063016 77 50 10.0 21.0 0.00 0.00 0.00 65 1019.9
20260906062016 77 47 7.0 15.0 0.00 0.00 0.00 66 1019.9
20260906061016 76 44 7.0 12.0 0.00 0.00 0.00 70 1019.8
20260906060015 75 36 6.0 12.0 0.00 0.00 0.00 74 1019.7
20260906055035 74 31 6.0 11.0 0.00 0.00 0.00 76 1019.5
20260906054015 73 33 5.0 11.0 0.00 0.00 0.00 79 1019.5
20260906053017 72 27 6.0 11.0 0.00 0.00 0.00 81 1019.4
20260906052037 70 24 3.0 10.0 0.00 0.00 0.00 83 1019.4
20260906051017 69 32 5.0 8.0 0.00 0.00 0.00 85 1019.3
20260906050016 69 26 4.0 6.0 0.00 0.00 0.00 87 1019.1
20260906045016 68 29 4.0 7.0 0.00 0.00 0.00 87 1018.9
20260906044035 69 21 5.0 7.0 0.00 0.00 0.00 87 1018.9
20260906043016 69 22 3.0 7.0 0.00 0.00 0.00 86 1018.9
20260906042018 69 18 4.0 6.0 0.00 0.00 0.00 86 1018.8
20260906041016 69 21 5.0 6.0 0.00 0.00 0.00 85 1018.7
20260906040016 70 24 4.0 7.0 0.00 0.00 0.00 84 1018.7
20260906035015 70 22 3.0 6.0 0.00 0.00 0.00 84 1018.6
20260906034015 70 26 4.0 6.0 0.00 0.00 0.00 83 1018.6
20260906033037 70 22 4.0 7.0 0.00 0.00 0.00 83 1018.5
20260906032017 70 27 2.0 7.0 0.00 0.00 0.00 83 1018.4
20260906031016 70 35 4.0 6.0 0.00 0.00 0.00 83 1018.3
20260906030016 70 36 3.0 6.0 0.00 0.00 0.00 83 1018.3
20260906025036 70 29 2.0 7.0 0.00 0.00 0.00 84 1018.2
20260906024035 70 33 4.0 6.0 0.00 0.00 0.00 85 1018.2
20260906023015 70 22 2.0 7.0 0.00 0.00 0.00 86 1018.2
20260906022017 70 21 3.0 6.0 0.00 0.00 0.00 86 1018.2
20260906021017 70 22 4.0 6.0 0.00 0.00 0.00 86 1018.1
20260906020017 70 40 3.0 5.0 0.00 0.00 0.00 87 1018.1
20260906015016 70 34 3.0 5.0 0.00 0.00 0.00 87 1018.0
20260906014016 70 31 4.0 6.0 0.00 0.00 0.00 87 1018.0
20260906013016 70 28 4.0 6.0 0.00 0.00 0.00 87 1018.1
20260906012015 70 21 5.0 6.0 0.00 0.00 0.00 86 1018.0
20260906011015 71 20 4.0 6.0 0.00 0.00 0.00 86 1017.8
20260906010017 71 26 4.0 7.0 0.00 0.00 0.00 86 1017.8
20260906005017 71 21 5.0 7.0 0.00 0.00 0.00 86 1017.8
20260906004037 71 23 3.0 6.0 0.00 0.00 0.00 85 1017.9
20260906003015 71 33 3.0 6.0 0.00 0.00 0.00 84 1017.9
20260906002017 71 36 2.0 6.0 0.00 0.00 0.00 84 1017.9
20260906001037 71 24 3.0 7.0 0.00 0.00 0.00 84 1017.8
20260906000037 71 23 5.0 6.0 0.00 0.00 0.00 83 1017.8
20260905235016 71 31 3.0 7.0 0.00 0.00 0.00 83 1017.8
20260905234036 71 20 4.0 8.0 0.00 0.00 0.00 83 1017.7
20260905233015 72 28 5.0 8.0 0.00 0.00 0.00 83 1017.7
20260905232015 72 27 4.0 6.0 0.00 0.00 0.00 82 1017.7
20260905231015 72 17 4.0 7.0 0.00 0.00 0.00 82 1017.8
20260905230037 72 17 4.0 6.0 0.00 0.00 0.00 81 1017.7
20260905225017 73 16 2.0 7.0 0.00 0.00 0.00 81 1017.6
20260905224037 73 10 2.0 6.0 0.00 0.00 0.00 81 1017.4
20260905223016 73 20 5.0 6.0 0.00 0.00 0.00 81 1017.3
20260905222016 73 23 3.0 6.0 0.00 0.00 0.00 80 1017.3
20260905221016 74 15 2.0 6.0 0.00 0.00 0.00 79 1017.2
20260905220015 74 21 3.0 6.0 0.00 0.00 0.00 77 1017.1
20260905215015 74 29 4.0 6.0 0.00 0.00 0.00 77 1017.0
20260905214017 74 29 2.0 6.0 0.00 0.00 0.00 79 1017.0
20260905213037 74 40 5.0 8.0 0.00 0.00 0.00 80 1016.9
20260905212017 74 44 4.0 7.0 0.00 0.00 0.00 83 1016.9
20260905211016 74 48 2.0 6.0 0.00 0.00 0.00 87 1016.9
20260905210036 75 52 2.0 5.0 0.00 0.00 0.00 89 1016.9
20260905205015 75 45 3.0 5.0 0.00 0.00 0.00 90 1017.0
20260905204015 75 37 3.0 4.0 0.00 0.00 0.00 90 1017.0
20260905203017 75 33 3.0 5.0 0.00 0.00 0.00 90 1017.0
20260905202016 75 37 3.0 5.0 0.00 0.00 0.00 90 1016.8
20260905201016 75 36 2.0 5.0 0.00 0.00 0.00 89 1016.5
20260905200015 76 28 1.0 4.0 0.00 0.00 0.00 89 1016.5
20260905195015 76 28 3.0 5.0 0.00 0.00 0.00 89 1016.4
20260905194017 76 28 1.0 5.0 0.00 0.00 0.00 88 1016.3
20260905193017 76 28 2.0 6.0 0.00 0.00 0.00 88 1016.2
20260905192036 77 32 4.0 6.0 0.00 0.00 0.00 86 1016.1
20260905191016 77 57 1.0 4.0 0.00 0.00 0.00 85 1016.0
20260905190016 77 68 3.0 5.0 0.00 0.00 0.00 86 1015.9
20260905185016 78 76 3.0 5.0 0.00 0.00 0.00 84 1015.7
20260905184015 78 111 2.0 3.0 0.00 0.00 0.00 82 1015.4
20260905183015 79 111 1.0 2.0 0.00 0.00 0.00 79 1015.2
20260905182017 79 111 2.0 3.0 0.00 0.00 0.00 77 1015.0
20260905181016 80 116 2.0 4.0 0.00 0.00 0.00 74 1014.9
20260905180016 81 133 2.0 3.0 0.00 0.00 0.00 71 1014.9
20260905175016 83 86 0.0 1.0 0.00 0.00 0.00 70 1014.6
20260905174015 84 86 0.0 1.0 0.00 0.00 0.00 69 1014.5
20260905173015 85 0.0 0.0 0.00 0.00 0.00 64 1014.4
20260905172015 86 87 0.0 1.0 0.00 0.00 0.00 62 1014.3
20260905171037 86 87 0.0 2.0 0.00 0.00 0.00 58 1014.2
20260905170017 87 87 1.0 2.0 0.00 0.00 0.00 57 1014.1
20260905165016 87 87 1.0 2.0 0.00 0.00 0.00 56 1014.0
20260905164016 88 87 1.0 3.0 0.00 0.00 0.00 55 1013.9
20260905163016 88 87 1.0 4.0 0.00 0.00 0.00 55 1013.9
20260905162017 89 76 2.0 4.0 0.00 0.00 0.00 53 1013.7
20260905161016 89 76 1.0 2.0 0.00 0.00 0.00 51 1013.8
20260905160016 90 76 1.0 5.0 0.00 0.00 0.00 50 1013.8
20260905155017 90 74 1.0 4.0 0.00 0.00 0.00 48 1013.8
20260905154016 90 65 2.0 6.0 0.00 0.00 0.00 48 1013.7
20260905153015 91 89 1.0 5.0 0.00 0.00 0.00 46 1013.5
20260905152018 92 85 2.0 4.0 0.00 0.00 0.00 45 1013.5
20260905151017 92 81 1.0 3.0 0.00 0.00 0.00 44 1013.5
20260905150017 92 82 1.0 5.0 0.00 0.00 0.00 43 1013.6
20260905145036 93 84 3.0 7.0 0.00 0.00 0.00 42 1013.6
20260905144016 93 199 2.0 4.0 0.00 0.00 0.00 42 1013.5
20260905143015 92 193 2.0 3.0 0.00 0.00 0.00 41 1013.5
20260905142015 92 68 1.0 5.0 0.00 0.00 0.00 42 1013.6
20260905141035 92 46 2.0 7.0 0.00 0.00 0.00 44 1013.7
20260905140017 91 80 2.0 5.0 0.00 0.00 0.00 44 1013.8
20260905135017 91 84 1.0 3.0 0.00 0.00 0.00 42 1013.7
20260905134016 91 84 1.0 5.0 0.00 0.00 0.00 44 1013.8
20260905133016 91 140 3.0 5.0 0.00 0.00 0.00 44 1013.8
20260905132016 91 101 4.0 9.0 0.00 0.00 0.00 46 1013.9
20260905131015 91 77 4.0 8.0 0.00 0.00 0.00 46 1013.8
20260905130015 92 61 3.0 5.0 0.00 0.00 0.00 46 1013.9
20260905125015 91 27 2.0 4.0 0.00 0.00 0.00 44 1014.1
20260905124017 90 73 1.0 7.0 0.00 0.00 0.00 45 1014.2
20260905123017 91 83 4.0 7.0 0.00 0.00 0.00 47 1014.2
20260905122017 90 117 2.0 4.0 0.00 0.00 0.00 46 1014.2
20260905121035 89 75 2.0 8.0 0.00 0.00 0.00 48 1014.3
20260905120017 90 106 1.0 4.0 0.00 0.00 0.00 51 1014.3
20260905115017 90 50 4.0 7.0 0.00 0.00 0.00 51 1014.4
20260905114016 89 62 2.0 4.0 0.00 0.00 0.00 52 1014.5
20260905113016 90 88 3.0 7.0 0.00 0.00 0.00 53 1014.5
20260905112036 90 290 1.0 6.0 0.00 0.00 0.00 52 1014.5
20260905111016 89 342 3.0 7.0 0.00 0.00 0.00 56 1014.6
20260905110015 89 67 1.0 6.0 0.00 0.00 0.00 53 1014.6
20260905105015 88 47 2.0 6.0 0.00 0.00 0.00 52 1014.7
20260905104018 87 75 1.0 5.0 0.00 0.00 0.00 54 1014.6
20260905103037 87 57 2.0 7.0 0.00 0.00 0.00 56 1014.7
20260905102017 87 344 3.0 7.0 0.00 0.00 0.00 58 1014.8
20260905101016 86 54 3.0 7.0 0.00 0.00 0.00 62 1014.9
20260905100017 85 49 3.0 5.0 0.00 0.00 0.00 63 1014.8
20260905095016 85 28 3.0 5.0 0.00 0.00 0.00 64 1014.8
20260905094015 85 35 2.0 4.0 0.00 0.00 0.00 64 1014.8
20260905093015 85 25 1.0 4.0 0.00 0.00 0.00 63 1014.9
20260905092018 84 32 2.0 5.0 0.00 0.00 0.00 64 1014.8
20260905091037 84 23 3.0 5.0 0.00 0.00 0.00 65 1014.8
20260905090016 84 21 1.0 5.0 0.00 0.00 0.00 65 1014.7
20260905085016 83 38 3.0 5.0 0.00 0.00 0.00 67 1014.6
20260905084016 83 20 4.0 6.0 0.00 0.00 0.00 68 1014.6
20260905083015 83 35 3.0 5.0 0.00 0.00 0.00 68 1014.5
20260905082015 83 43 4.0 6.0 0.00 0.00 0.00 68 1014.4
20260905081036 83 30 3.0 7.0 0.00 0.00 0.00 69 1014.4
20260905080016 82 13 4.0 6.0 0.00 0.00 0.00 69 1014.4
20260905075036 81 68 4.0 6.0 0.00 0.00 0.00 67 1014.3
20260905074015 80 67 4.0 6.0 0.00 0.00 0.00 70 1014.1